Back to catalog

HATEF 1

AliveCommunicationsLEO
NORAD 58852·PAYLOAD·🇮🇷 Iran
This satellite name has not been confirmed by official sources yet.

Launched Jan 28, 2024 from Semnan Space Center

Loading…

Next Passes (next 24 hours)

TLE

FreshSource: Space-Track

Epoch: Sep 14, 2026, 14:51 UTC

1 58852U 24018D   26257.61922914  .00002820  00000-0  27535-3 0  9996
2 58852  58.6686 219.4134 0353926 233.0470 123.7672 14.58190403139062

Track HATEF 1 in real time with AllMySat

Download on the App Store